Temp
49 49 48 49 50 50 50 49 49 49 49 50 50 50 51 53 53 64 60 63 68 57 58 60 61 60 60 64 56 56 57 55 53 47 47 48 44 49 49 52 47 46 42 38 39 36 36 58 56 50 58 61 60 60
49 49 49 49 49 49 49 49 50 50 50 50 50 50 51 53 53 58 61 62 67 63 58 62 60 62 61 63 63 60 61 59 61 53 48 45 40 38 46 46 51 46 52 51 51 52 58 60 61 63 61 59 61 60
48 49 49 49 49 49 48 48 48 49 49 49 50 51 52 54 53 59 62 61 65 58 59 63 59 62 64 62 64 61 58 61 59 59 54 49 38 50 38 47 49 53 53 50 49 58 59 60 63 64 64 61 62 63
49 49 48 48 48 48 48 48 48 48 49 49 50 51 52 53 53 58 64 59 61 57 42 54 63 58 61 64 64 63 61 58 58 60 49 42 42 51 47 51 51 54 53 52 51 58 60 61 61 60 60 61 60 61
48 47 47 47 47 48 48 48 49 49 49 50 51 52 53 53 53 59 59 58 60 61 45 52 58 58 61 63 62 63 62 61 59 51 42 46 49 48 46 48 48 55 52 49 49 54 54 57 60 59 57 58 58 57
47 47 47 47 47 48 47 48 48 49 50 51 52 52 52 53 52 67 62 57 59 62 55 44 55 54 58 60 58 57 59 59 61 54 43 51 49 51 39 46 48 51 53 54 52 56 56 56 57 56 54 54 54 53
47 47 47 47 48 48 48 48 49 50 50 51 51 51 51 52 58 61 59 54 51 58 52 42 47 53 53 56 52 55 56 55 57 48 41 44 46 53 40 46 45 49 52 52 54 54 53 51 49 51 51 50 47 46
47 47 47 47 47 48 49 49 49 50 51 51 51 51 51 51 54 57 56 50 52 60 58 43 42 48 52 45 43 48 47 54 47 43 43 42 43 44 40 41 44 47 49 50 49 52 50 51 50 48 46 41 37 37
46 47 46 46 47 47 48 48 49 49 49 49 49 50 58 55 55 56 48 49 58 59 49 38 41 39 49 42 42 45 50 40 46 40 41 47 38 35 35 37 39 40 41 42 47 48 45 43 41 40 38 36 34 34
46 46 46 46 46 48 48 49 49 50 49 50 56 53 46 50 48 51 58 54 51 49 47 36 43 38 48 42 39 40 41 39 38 39 42 38 32 38 37 37 38 40 45 45 41 36 37 36 36 36 36 38 41 42
47 46 46 47 47 48 49 49 49 51 53 54 50 45 53 50 57 51 43 44 46 39 42 40 44 40 45 40 37 40 37 38 35 40 39 35 31 34 37 38 42 42 43 44 44 43 43 41 39 37 38 40 41 41
46 46 46 47 47 47 49 49 49 51 50 51 51 51 52 50 47 38 35 38 39 37 38 38 39 43 40 48 40 39 34 36 32 42 36 32 34 35 37 37 39 41 41 42 44 43 43 43 43 42 41 41 41 39
45 46 46 46 46 47 47 47 47 47 48 54 50 41 47 39 36 36 33 35 34 35 36 36 36 40 41 45 36 37 33 34 42 34 34 34 35 35 38 40 42 43 42 43 43 43 43 42 41 39 38 39 35 40
45 45 45 45 46 46 46 47 47 48 49 40 37 34 35 34 35 34 36 36 34 34 36 38 36 37 37 36 34 34 33 35 31 30 30 33 35 36 41 42 42 40 35 40 41 41 38 38 37 35 33 33 33 35
45 45 45 44 45 45 45 46 47 50 44 38 39 31 31 32 33 33 33 34 34 35 36 36 36 39 34 33 34 34 31 31 33 32 34 35 36 39 40 41 41 39 34 39 42 37 33 33 36 36 36 36 34 31
46 46 43 44 45 45 45 45 45 45 38 36 35 32 33 33 32 33 33 32 35 35 36 36 34 34 32 34 32 31 31 31 32 34 34 33 37 35 36 39 40 40 40 40 39 38 35 32 32 34 34 32 30 30
46 43 43 44 45 45 45 44 40 35 34 33 33 34 34 33 32 32 33 33 35 34 33 36 32 30 34 32 30 35 32 35 34 34 35 39 37 36 34 36 35 38 38 38 36 33 32 33 33 32 31 33 32 32
41 44 43 45 46 45 43 42 39 37 31 33 32 32 33 33 33 33 34 36 39 38 38 34 38 32 31 29 32 33 33 35 36 34 36 38 39 36 38 39 39 37 34 31 32 33 33 31 32 32 31 30 31 31
43 43 43 43 45 44 39 38 41 32 32 34 33 34 34 34 35 35 34 35 36 40 39 37 33 33 33 36 33 33 35 35 34 32 32 35 37 37 37 36 35 34 33 33 33 32 32 30 29 29 29 28 26 28
42 43 42 42 46 41 35 36 43 36 32 32 34 32 33 33 33 33 34 37 38 38 34 32 32 32 34 33 35 37 39 42 38 33 31 34 36 35 35 34 33 33 32 31 29 27 29 29 28 27 25 23 22 22
43 42 42 44 41 40 36 36 35 35 34 32 33 33 31 33 32 32 33 39 35 30 31 31 30 31 34 36 38 40 39 41 38 37 34 31 33 33 32 31 31 30 29 27 26 25 23 24 24 23 21 20 20 21
40 41 40 40 37 36 36 36 36 37 35 33 33 34 30 30 30 30 33 34 31 31 32 33 33 33 32 31 33 35 35 35 34 32 31 31 29 29 28 28 28 25 24 22 23 21 21 21 19 19 18 17 19 20
40 40 36 34 32 32 29 38 33 34 30 31 33 30 30 30 31 35 30 32 31 32 32 31 31 31 30 32 32 32 33 33 30 29 29 29 27 27 25 23 23 22 22 21 21 20 18 14 17 15 16 17 17 17
38 31 29 28 30 25 29 28 33 32 32 30 29 26 28 30 33 31 27 29 30 32 31 30 30 28 28 27 27 27 29 30 27 27 28 27 24 23 24 22 20 19 18 19 18 16 16 15 12 15 14 14 14 13
29 25 28 24 28 26 23 23 25 29 25 26 26 26 26 30 25 24 24 25 27 27 28 30 30 29 25 24 24 24 25 28 25 22 23 24 23 22 21 20 19 18 18 16 14 13 13 12 12 12 12 12 11 11
21 25 25 23 25 25 23 24 23 23 24 25 25 27 28 27 22 19 22 24 25 24 24 25 26 24 22 24 23 21 20 23 25 21 20 21 20 19 17 17 17 16 16 14 12 10 10 11 10 9 10 11 10 10
21 23 27 31 29 29 27 27 28 27 24 24 26 26 26 21 18 21 25 24 24 23 23 23 25 24 21 19 20 20 21 22 21 20 19 19 18 18 16 13 11 13 14 12 10 9 8 8 8 8 9 11 12 10
26 27 22 25 27 29 25 25 25 24 26 29 29 22 21 20 19 21 22 24 23 23 21 20 20 20 19 18 19 19 18 17 16 17 18 17 17 15 13 14 13 9 10 9 8 8 8 8 8 9 9 8 8 9
26 28 27 20 24 26 25 25 25 28 28 28 25 21 17 18 18 20 20 22 23 23 20 18 16 18 16 15 15 16 17 18 16 12 10 13 14 14 14 13 13 12 11 10 8 8 9 9 9 7 6 6 6 7
25 28 26 22 22 23 25 28 28 28 27 25 23 20 18 16 16 19 20 19 18 15 14 14 15 17 14 16 14 13 13 13 12 11 11 10 10 11 11 11 10 11 9 8 7 7 7 7 7 7 5 5 5 4
29 29 27 27 25 26 25 24 28 27 25 22 20 18 15 15 16 15 15 14 15 15 16 14 12 13 13 12 13 13 11 11 7 7 8 9 10 10 11 10 10 9 8 6 6 5 4 4 5 3 3 2 0 -0
25 21 22 21 23 22 23 23 22 24 24 20 15 15 14 15 11 13 12 15 15 13 4 11 13 12 11 12 9 11 1 9 9 8 7 8 9 10 10 9 8 7 6 5 5 4 3 2 2 2 1 0 -1 -2
22 22 20 21 21 21 18 18 16 17 18 16 13 13 12 13 7 11 13 12 12 11 11 11 11 11 9 6 9 10 4 9 6 4 2 3 2 4 6 8 7 6 4 4 4 3 1 1 1 0 -0 -3 -3 -3
MSLP
992.99 993.69 994.57 995.18 996.10 996.80 997.66 998.44 999.14 999.75 1000.37 1001.00 1001.76 1002.50 1003.23 1003.92 1004.55 1003.96 1004.95 1005.15 1004.58 1005.78 1007.17 1007.32 1007.19 1007.15 1007.56 1007.43 1007.95 1010.03 1010.79 1011.32 1011.51 1011.59 1012.19 1012.66 1013.11 1013.20 1013.12 1013.12 1013.50 1013.68 1014.28 1014.66 1014.63 1013.81 1012.57 1012.06 1012.24 1012.04 1011.76 1011.44 1011.61 1011.60
992.96 993.93 994.71 995.47 996.41 997.16 997.81 998.38 998.91 999.33 999.92 1000.81 1001.57 1002.22 1002.90 1003.55 1004.03 1003.99 1004.86 1005.54 1005.17 1005.90 1007.75 1008.11 1008.34 1008.27 1008.08 1007.91 1007.89 1009.27 1009.13 1009.54 1009.97 1010.88 1012.42 1013.25 1013.68 1014.04 1013.82 1013.05 1013.68 1013.45 1013.16 1013.21 1013.30 1012.28 1011.93 1012.10 1011.73 1011.92 1012.14 1012.07 1011.99 1012.13
993.93 994.79 995.69 996.35 996.84 997.39 998.04 998.39 998.86 999.54 1000.20 1000.73 1001.25 1001.85 1002.46 1003.24 1003.92 1004.06 1004.78 1005.50 1005.52 1006.97 1008.12 1007.98 1008.38 1008.63 1008.63 1008.72 1008.64 1008.37 1009.49 1009.52 1010.15 1010.80 1011.91 1013.27 1013.67 1013.74 1013.80 1013.16 1013.16 1013.23 1013.59 1013.38 1013.22 1011.87 1011.86 1011.92 1012.05 1012.08 1012.17 1012.24 1012.28 1012.35
995.03 995.52 996.08 996.72 997.35 997.98 998.61 999.13 999.42 999.61 999.85 1000.25 1000.81 1001.55 1002.44 1003.30 1003.94 1004.15 1004.70 1005.82 1005.84 1006.91 1008.07 1008.96 1009.09 1009.21 1009.55 1008.83 1008.68 1008.56 1008.63 1009.82 1010.54 1011.07 1012.09 1013.17 1013.70 1014.03 1013.90 1013.45 1013.32 1013.45 1013.66 1013.21 1012.95 1012.19 1012.01 1012.02 1012.45 1012.75 1012.74 1012.68 1012.71 1012.76
996.36 997.02 997.53 997.98 998.45 998.77 999.07 999.22 999.20 999.29 999.57 1000.09 1000.74 1001.54 1002.42 1003.33 1004.06 1004.46 1005.29 1006.16 1006.17 1006.89 1007.90 1009.03 1009.62 1010.21 1009.78 1009.25 1009.07 1009.12 1009.20 1009.60 1010.53 1011.68 1012.61 1013.51 1013.97 1014.42 1014.97 1014.68 1014.19 1014.22 1014.00 1013.85 1013.21 1013.46 1013.29 1012.91 1013.19 1013.51 1013.49 1013.42 1013.57 1013.64
997.63 998.13 998.61 998.85 999.04 999.32 999.41 999.39 999.20 999.30 999.58 1000.07 1000.92 1001.84 1002.62 1003.44 1003.85 1003.94 1005.42 1007.01 1007.12 1006.89 1007.22 1009.47 1010.66 1010.70 1010.53 1010.15 1010.02 1010.15 1010.18 1010.47 1010.83 1011.80 1013.51 1014.06 1014.64 1014.66 1014.99 1014.98 1015.59 1015.48 1015.37 1015.12 1014.45 1014.38 1014.25 1014.29 1014.50 1014.72 1014.76 1014.95 1015.08 1015.29
998.88 999.08 999.21 999.61 999.82 999.76 999.90 999.98 1000.31 1000.42 1000.64 1001.17 1001.88 1002.67 1003.34 1003.74 1004.03 1004.89 1006.47 1007.55 1007.34 1007.25 1007.21 1009.98 1010.64 1011.18 1011.29 1010.82 1011.50 1011.42 1011.47 1011.69 1011.94 1013.35 1014.43 1014.96 1015.29 1015.04 1015.60 1015.77 1016.60 1016.44 1016.17 1015.89 1015.73 1015.15 1014.87 1015.65 1015.99 1016.40 1016.65 1017.13 1017.50 1017.98
1000.01 1000.40 1000.67 1000.73 1000.66 1000.86 1000.84 1001.32 1001.56 1001.74 1001.92 1002.28 1002.89 1003.49 1003.89 1004.19 1005.01 1005.65 1006.55 1007.07 1007.37 1006.63 1007.15 1009.59 1011.30 1011.65 1012.02 1012.11 1012.77 1013.09 1012.74 1012.67 1013.70 1014.55 1015.32 1015.61 1016.22 1016.38 1016.88 1017.70 1017.64 1017.40 1016.86 1016.66 1016.84 1016.59 1016.79 1017.22 1017.54 1018.05 1018.73 1019.38 1019.73 1020.18
1001.49 1001.68 1001.67 1001.91 1002.07 1002.08 1002.26 1002.48 1002.57 1002.72 1003.36 1003.62 1003.84 1003.97 1004.58 1005.60 1006.70 1007.35 1007.58 1007.44 1006.91 1007.23 1008.30 1009.91 1011.24 1012.40 1012.86 1013.29 1013.67 1013.82 1013.58 1014.17 1014.95 1015.16 1015.74 1015.87 1016.94 1017.80 1018.72 1018.88 1018.80 1018.66 1018.29 1018.10 1018.02 1018.01 1018.34 1018.65 1019.30 1019.85 1020.26 1020.72 1020.98 1021.47
1002.57 1002.65 1002.80 1002.97 1002.90 1002.74 1002.87 1002.79 1002.90 1003.10 1003.31 1003.48 1003.52 1004.47 1006.25 1007.51 1007.76 1007.49 1007.37 1007.42 1007.59 1008.94 1010.00 1011.68 1012.60 1013.15 1013.39 1013.80 1014.42 1014.60 1014.63 1014.89 1015.15 1016.03 1016.21 1016.55 1018.24 1019.28 1019.70 1019.89 1019.78 1019.45 1018.93 1018.68 1018.73 1019.40 1019.75 1020.07 1020.49 1020.96 1021.22 1021.35 1021.30 1021.37
1003.50 1003.55 1003.84 1003.86 1003.91 1003.30 1003.04 1002.83 1003.51 1003.77 1003.65 1004.45 1005.99 1007.42 1007.67 1007.68 1007.70 1008.09 1008.90 1009.48 1010.12 1011.17 1012.06 1012.88 1012.97 1013.32 1014.10 1013.92 1014.53 1015.12 1015.10 1015.43 1015.46 1015.97 1016.32 1017.26 1018.66 1019.66 1020.18 1020.26 1020.11 1020.05 1019.81 1019.53 1019.52 1019.99 1020.40 1020.65 1020.98 1021.28 1021.67 1021.86 1022.01 1022.08
1004.45 1004.40 1004.76 1004.92 1004.95 1004.62 1004.24 1004.10 1004.05 1004.83 1006.01 1006.27 1006.38 1007.46 1007.83 1008.22 1008.48 1009.29 1010.99 1011.47 1011.64 1012.70 1013.24 1013.49 1013.83 1013.92 1014.44 1014.29 1014.59 1015.40 1015.48 1015.92 1015.81 1016.28 1016.72 1017.55 1019.07 1019.90 1020.32 1020.53 1020.62 1020.75 1020.78 1020.69 1020.76 1020.96 1021.22 1021.43 1021.68 1021.97 1022.19 1022.30 1022.44 1022.50
1005.84 1005.85 1005.92 1006.03 1006.06 1005.77 1005.27 1005.61 1006.19 1006.72 1006.86 1006.57 1006.92 1008.22 1008.78 1010.12 1010.50 1011.04 1012.08 1012.79 1013.31 1013.63 1013.91 1014.07 1014.37 1014.49 1014.71 1014.69 1015.16 1015.37 1015.69 1016.00 1016.15 1016.56 1016.92 1017.97 1019.23 1020.14 1020.56 1020.78 1021.00 1021.28 1021.43 1021.39 1021.48 1021.67 1021.85 1022.10 1022.37 1022.70 1022.90 1023.01 1023.02 1022.76
1007.14 1007.14 1007.15 1007.30 1007.24 1006.89 1006.54 1006.49 1006.65 1006.65 1007.03 1008.75 1009.71 1010.93 1011.69 1012.36 1012.72 1013.00 1013.29 1013.74 1014.48 1014.44 1014.36 1014.31 1014.64 1014.79 1015.12 1015.18 1015.51 1015.61 1016.33 1016.42 1016.44 1016.64 1017.36 1018.63 1019.45 1020.30 1020.65 1020.94 1021.14 1021.54 1021.98 1021.79 1021.98 1022.31 1022.69 1022.90 1023.15 1023.40 1023.60 1023.67 1023.68 1023.60
1008.02 1008.10 1007.69 1008.00 1007.96 1007.71 1007.68 1007.59 1007.60 1007.96 1009.47 1010.86 1011.49 1012.77 1013.35 1013.96 1014.19 1014.36 1014.55 1014.83 1015.15 1015.13 1014.95 1014.88 1015.12 1015.20 1015.51 1015.73 1015.91 1016.14 1016.43 1016.20 1016.36 1016.77 1017.94 1019.02 1019.89 1020.45 1020.94 1021.27 1021.54 1021.92 1022.35 1022.34 1022.56 1023.06 1023.44 1023.65 1023.76 1023.89 1024.09 1024.22 1024.40 1024.40
1008.34 1008.21 1008.97 1009.00 1008.72 1008.41 1008.25 1008.10 1008.62 1009.88 1011.83 1012.79 1013.48 1014.17 1014.53 1014.61 1015.01 1015.10 1015.29 1015.58 1015.69 1015.65 1015.40 1015.23 1015.41 1015.60 1015.82 1015.82 1015.95 1015.91 1016.03 1016.21 1017.11 1017.92 1018.91 1019.82 1020.35 1021.04 1021.46 1021.73 1022.03 1022.30 1022.57 1022.86 1023.25 1023.58 1024.00 1024.36 1024.56 1024.70 1024.80 1025.00 1024.92 1024.85
1008.73 1010.01 1010.24 1009.69 1009.38 1009.22 1008.97 1009.47 1010.84 1012.66 1013.70 1014.32 1014.94 1015.09 1015.14 1015.33 1015.74 1015.90 1016.01 1016.27 1016.19 1015.90 1015.76 1015.64 1015.61 1016.00 1016.26 1016.09 1016.26 1016.36 1016.64 1017.19 1017.99 1018.93 1019.69 1020.16 1020.82 1021.47 1022.00 1022.32 1022.62 1022.88 1023.19 1023.60 1024.02 1024.46 1024.91 1025.14 1025.21 1025.22 1025.09 1025.14 1025.16 1025.01
1010.54 1010.67 1010.26 1009.73 1009.38 1009.48 1010.42 1011.21 1012.41 1013.78 1015.01 1015.59 1015.70 1016.08 1016.11 1016.27 1016.45 1016.56 1016.70 1016.60 1016.27 1016.16 1016.02 1016.07 1016.08 1016.27 1016.29 1016.45 1016.71 1017.35 1017.83 1018.32 1019.05 1019.81 1020.43 1020.82 1021.26 1021.77 1022.10 1022.49 1023.01 1023.51 1024.10 1024.59 1024.93 1025.15 1025.44 1025.52 1025.45 1025.52 1025.65 1025.75 1025.40 1025.15
1011.18 1010.96 1010.41 1010.03 1009.69 1010.17 1011.82 1013.16 1013.61 1014.74 1015.99 1016.30 1016.62 1016.81 1016.95 1017.18 1017.35 1017.38 1017.24 1017.14 1016.97 1016.70 1016.47 1016.58 1016.73 1016.93 1017.17 1017.49 1017.83 1018.17 1018.57 1019.07 1019.83 1020.87 1021.58 1021.93 1022.20 1022.51 1022.90 1023.47 1023.91 1024.38 1024.82 1025.28 1025.52 1025.72 1025.87 1026.24 1026.42 1026.50 1026.57 1026.44 1026.14 1025.89
1011.05 1010.92 1010.61 1010.38 1009.98 1011.25 1013.30 1014.48 1014.51 1015.27 1016.34 1017.06 1017.24 1017.49 1017.62 1017.76 1017.93 1017.76 1017.47 1017.35 1017.19 1017.08 1017.18 1017.60 1018.23 1018.81 1018.78 1019.07 1019.15 1019.02 1019.28 1019.45 1020.32 1021.39 1022.27 1022.86 1023.29 1023.62 1024.01 1024.31 1024.79 1025.25 1025.62 1026.06 1026.54 1026.78 1026.65 1026.74 1027.18 1027.40 1027.50 1027.40 1027.01 1026.74
1011.24 1011.70 1011.43 1010.96 1011.86 1013.04 1014.84 1015.42 1015.83 1016.46 1016.83 1017.23 1017.74 1017.79 1018.16 1018.27 1018.31 1018.26 1018.27 1018.06 1017.84 1018.51 1018.84 1019.40 1019.88 1020.32 1020.40 1020.29 1020.18 1020.08 1020.23 1020.37 1020.84 1021.30 1022.10 1023.19 1024.12 1024.55 1025.09 1025.55 1026.00 1026.31 1026.54 1026.95 1027.17 1027.54 1027.81 1027.96 1028.23 1028.28 1028.20 1028.03 1027.97 1027.56
1013.01 1012.72 1012.47 1012.58 1013.66 1014.79 1015.92 1016.70 1016.70 1016.99 1017.28 1017.75 1017.95 1018.22 1018.49 1018.65 1018.85 1019.15 1019.14 1018.63 1019.47 1020.26 1020.43 1020.44 1020.72 1021.03 1021.36 1021.51 1021.59 1021.53 1021.80 1021.97 1022.52 1023.04 1023.67 1024.29 1024.89 1025.50 1026.07 1026.54 1026.81 1027.32 1027.73 1028.19 1028.43 1028.70 1028.85 1029.09 1029.24 1029.08 1028.84 1028.70 1028.35 1027.80
1013.60 1013.51 1014.18 1014.82 1015.53 1016.49 1017.90 1017.47 1017.25 1017.45 1017.49 1018.05 1018.23 1018.47 1018.88 1019.17 1019.57 1019.64 1019.73 1020.27 1020.94 1021.55 1021.59 1021.80 1022.05 1022.33 1022.65 1022.96 1023.09 1023.26 1023.23 1023.26 1023.77 1024.46 1024.98 1025.48 1026.18 1026.78 1027.32 1027.88 1028.25 1028.50 1028.78 1029.16 1029.50 1029.60 1029.78 1030.17 1029.76 1029.70 1029.32 1028.98 1028.50 1028.04
1014.66 1015.76 1016.54 1017.16 1017.59 1018.40 1018.65 1018.49 1018.43 1018.34 1018.33 1018.45 1018.62 1019.06 1019.51 1019.87 1020.24 1020.29 1020.62 1021.46 1022.47 1022.61 1022.50 1022.84 1023.15 1023.42 1023.81 1024.11 1024.29 1024.64 1024.80 1024.93 1025.30 1025.88 1026.29 1026.51 1027.08 1027.80 1028.30 1028.85 1029.37 1029.80 1030.15 1030.31 1030.37 1030.42 1030.40 1030.36 1030.39 1029.98 1029.65 1029.22 1028.81 1028.44
1016.26 1018.86 1018.68 1019.00 1019.23 1019.17 1019.43 1019.48 1019.29 1018.88 1019.13 1019.34 1019.34 1019.73 1020.19 1020.54 1020.81 1021.42 1022.08 1023.20 1023.71 1023.90 1023.85 1023.79 1023.90 1024.19 1024.67 1025.31 1025.84 1026.21 1026.39 1026.17 1026.39 1026.94 1027.72 1027.91 1028.26 1028.69 1029.13 1029.63 1030.14 1030.66 1030.99 1030.86 1030.85 1030.89 1030.82 1030.78 1030.57 1030.28 1029.91 1029.44 1029.14 1028.76
1018.86 1020.06 1020.03 1020.26 1020.35 1020.14 1020.36 1020.15 1020.23 1020.14 1019.96 1019.84 1020.16 1020.69 1020.90 1021.17 1021.96 1023.07 1024.19 1024.96 1025.14 1025.50 1025.60 1025.41 1025.38 1025.72 1026.21 1026.56 1026.90 1027.33 1027.76 1027.83 1027.70 1028.05 1028.93 1029.20 1029.35 1029.52 1029.89 1030.24 1030.58 1030.95 1031.55 1031.64 1031.61 1031.49 1031.25 1031.04 1030.76 1030.45 1029.92 1029.49 1029.21 1028.94
1020.16 1020.73 1020.93 1021.01 1020.81 1020.69 1020.70 1020.96 1020.92 1020.65 1020.54 1020.50 1020.73 1021.18 1021.66 1022.41 1023.68 1025.01 1025.88 1026.62 1026.57 1027.15 1027.26 1027.14 1026.86 1027.08 1027.62 1028.15 1028.57 1028.85 1028.97 1028.95 1028.87 1029.32 1029.96 1030.32 1030.66 1030.95 1031.14 1031.36 1031.67 1032.08 1032.09 1032.16 1032.20 1031.95 1031.63 1031.24 1030.81 1030.43 1030.03 1029.58 1029.27 1029.15
1021.07 1021.30 1021.37 1021.49 1021.14 1021.19 1021.09 1021.13 1021.12 1021.16 1021.21 1021.48 1021.76 1022.36 1023.32 1024.32 1025.70 1026.79 1027.38 1027.88 1028.04 1028.20 1028.39 1028.67 1028.84 1028.91 1029.28 1029.62 1029.70 1029.86 1030.13 1030.33 1030.45 1030.55 1030.82 1031.17 1031.50 1031.81 1032.12 1032.38 1032.60 1032.91 1032.81 1032.64 1032.62 1032.12 1031.71 1031.30 1030.84 1030.44 1030.11 1029.85 1029.63 1029.53
1021.60 1021.81 1021.83 1021.86 1021.76 1021.78 1021.89 1021.89 1021.95 1022.25 1022.60 1022.58 1023.05 1024.31 1025.78 1027.11 1028.29 1028.56 1028.79 1028.93 1028.91 1028.91 1029.11 1029.46 1030.00 1030.25 1030.55 1030.85 1031.06 1031.13 1031.08 1030.85 1030.78 1030.94 1031.13 1031.31 1031.60 1031.88 1032.31 1032.43 1032.39 1032.41 1032.37 1032.27 1032.22 1032.00 1031.58 1031.08 1030.79 1030.81 1030.72 1030.40 1030.14 1029.90
1022.26 1022.30 1022.10 1022.32 1022.41 1022.51 1022.86 1023.00 1022.94 1023.34 1023.80 1024.34 1025.06 1026.27 1027.48 1028.89 1029.95 1030.26 1029.95 1029.94 1030.01 1030.29 1030.68 1030.85 1030.96 1030.86 1031.18 1031.18 1031.60 1031.98 1032.33 1032.40 1032.40 1032.30 1032.09 1032.10 1032.22 1032.46 1032.54 1032.47 1032.42 1032.30 1032.45 1032.20 1031.93 1031.66 1031.50 1031.25 1030.96 1030.81 1030.84 1030.47 1030.17 1030.02
1022.93 1022.64 1022.61 1022.72 1023.07 1023.60 1024.01 1024.15 1023.85 1024.06 1024.60 1025.41 1026.27 1026.90 1028.25 1029.60 1030.72 1031.47 1031.57 1031.67 1031.54 1031.47 1031.39 1031.54 1031.84 1032.10 1032.10 1032.28 1032.31 1032.48 1032.62 1033.05 1033.32 1033.32 1033.32 1033.17 1032.95 1032.73 1032.55 1032.58 1032.43 1032.47 1032.37 1032.16 1031.93 1031.68 1031.54 1031.22 1030.87 1030.83 1030.68 1030.60 1030.53 1030.41
1023.67 1023.83 1023.71 1023.63 1023.90 1024.60 1024.67 1024.54 1024.57 1024.56 1025.06 1026.01 1027.32 1028.34 1029.36 1029.76 1030.72 1031.92 1032.87 1032.51 1032.22 1032.21 1032.81 1032.63 1032.48 1032.79 1033.24 1033.35 1033.48 1033.48 1033.53 1033.53 1033.47 1033.61 1033.47 1033.26 1032.90 1032.59 1032.58 1032.44 1032.44 1032.44 1032.22 1032.02 1031.80 1031.67 1031.53 1031.32 1031.07 1030.93 1030.81 1030.71 1030.70 1030.65
1024.65 1024.69 1024.75 1024.68 1024.71 1024.89 1025.54 1025.64 1025.58 1025.70 1026.21 1027.06 1028.28 1029.09 1029.79 1030.36 1031.51 1032.73 1033.69 1033.68 1033.54 1033.48 1033.49 1033.53 1033.63 1033.66 1033.81 1033.84 1033.74 1033.62 1034.11 1033.63 1033.90 1033.83 1033.80 1033.57 1033.46 1033.19 1032.88 1032.34 1032.24 1032.15 1032.08 1031.93 1031.73 1031.61 1031.49 1031.29 1031.10 1031.01 1030.94 1031.00 1030.96 1030.89
Wind_Speed
19 19 17 21 22 22 22 21 20 19 19 19 20 22 22 24 13 1 4 4 2 4 5 1 2 6 5 6 7 9 7 2 2 2 2 3 2 4 3 2 4 6 6 4 3 3 5 5 6 3 5 3 5 4
25 26 23 22 22 22 20 18 16 15 14 17 19 21 23 25 13 6 4 1 6 6 5 5 8 7 4 4 6 11 2 6 5 4 1 3 3 1 1 3 3 4 3 1 6 1 4 6 6 3 5 8 7 6
24 24 24 21 19 18 16 14 13 13 18 20 20 22 23 24 11 2 6 3 4 5 4 4 4 5 9 6 5 4 2 5 5 4 5 3 4 4 4 4 2 4 4 3 2 2 6 8 8 9 9 11 11 11
24 22 22 20 19 17 14 12 11 12 15 18 20 21 22 17 11 5 4 2 4 5 5 4 3 4 10 4 1 3 8 8 7 2 3 3 3 4 2 1 3 3 7 5 5 9 6 2 3 6 10 9 9 7
23 22 21 20 19 17 15 12 12 13 13 17 21 21 21 16 12 8 6 3 5 2 5 4 3 7 9 6 9 9 11 8 3 3 3 2 3 4 1 1 1 1 4 2 2 6 5 7 10 10 10 10 9 6
23 23 21 17 17 16 15 15 14 15 17 20 22 21 21 18 12 2 5 3 2 3 5 4 2 4 7 9 12 12 7 5 3 4 3 3 2 1 4 4 5 6 6 7 5 12 9 9 6 11 9 9 8 10
22 22 20 18 17 18 18 19 17 15 18 19 22 19 13 9 5 4 4 3 4 3 5 5 3 4 5 4 5 4 6 4 4 3 3 3 2 2 3 3 7 8 8 4 9 9 3 12 7 10 12 14 17 19
19 18 18 18 17 18 22 20 21 22 22 23 22 20 21 24 13 5 6 6 4 3 4 5 3 2 7 3 3 4 2 2 5 3 2 2 2 1 2 6 8 9 10 4 9 8 7 8 11 13 14 15 17 15
17 17 19 16 14 17 17 14 13 16 11 12 12 13 4 7 3 3 5 9 3 4 4 4 5 4 3 3 2 2 2 4 0 2 2 2 2 2 3 5 7 9 7 3 8 11 12 13 14 14 15 13 12 8
18 17 17 14 12 14 15 14 17 10 8 7 6 6 4 3 7 7 1 3 6 6 6 5 1 3 0 1 2 2 2 2 3 2 1 2 3 4 3 2 3 5 8 9 8 9 11 13 11 10 9 9 9 7
18 19 16 15 12 12 15 19 15 6 6 5 4 3 1 5 1 4 4 4 2 4 3 2 2 4 2 2 3 2 2 1 3 3 3 3 3 3 1 4 5 7 9 12 14 12 12 12 11 8 5 4 4 4
22 22 19 17 16 12 17 19 13 7 3 3 5 4 2 4 3 7 3 1 4 3 2 2 2 3 2 0 3 1 3 1 3 3 2 4 4 5 5 6 9 10 11 11 11 10 8 8 7 6 4 4 5 5
24 23 21 19 17 16 17 19 14 8 4 1 5 6 4 5 6 2 4 1 2 1 1 2 3 2 3 3 3 2 3 2 5 3 2 3 8 7 8 8 9 7 6 7 7 6 6 6 7 6 5 6 5 6
19 21 23 19 16 17 17 14 9 8 8 6 5 6 4 2 3 3 3 3 1 1 2 3 3 2 1 3 1 3 2 3 4 4 3 6 8 10 9 6 7 6 4 5 7 7 7 6 7 6 5 4 5 7
16 17 18 22 14 14 14 13 11 6 5 5 3 4 3 2 2 2 1 2 2 1 0 3 3 2 3 3 1 3 4 4 1 2 4 6 10 10 9 7 7 6 3 5 6 7 5 5 6 8 8 9 9 7
6 9 13 20 12 11 10 8 7 4 5 4 5 3 2 2 2 2 3 3 2 1 0 2 3 2 2 2 3 2 3 2 3 3 4 7 10 7 6 7 5 6 6 6 6 7 8 8 7 6 6 8 7 7
11 5 17 13 5 6 12 6 5 7 4 4 4 3 2 5 3 2 2 2 2 1 2 1 2 3 2 2 3 0 2 3 6 6 6 8 9 7 6 5 5 6 7 7 8 8 6 5 4 5 7 10 9 8
6 7 15 11 1 3 4 6 4 4 6 4 3 3 2 3 2 3 2 2 1 2 0 2 3 2 1 3 3 3 3 5 6 6 4 5 6 5 6 8 8 8 8 7 6 5 6 5 5 6 8 9 9 9
4 12 16 14 4 5 5 5 4 5 4 2 2 2 3 3 3 2 1 2 2 2 3 1 2 2 2 3 3 6 6 5 6 5 6 8 8 9 10 9 9 8 8 7 6 5 5 7 6 6 6 7 7 8
10 16 21 12 6 4 5 4 2 4 3 3 2 3 2 3 1 2 3 5 3 1 4 4 4 3 3 4 3 4 5 7 8 8 6 6 6 8 7 6 6 6 5 6 6 6 4 4 5 6 6 7 7 9
8 9 12 7 5 7 5 3 5 3 3 3 1 2 3 2 3 3 3 4 3 4 3 3 4 4 5 5 4 4 5 4 4 4 6 7 6 6 6 6 6 5 5 5 4 5 5 5 5 6 6 7 7 8
5 11 4 7 5 5 5 6 3 2 3 2 2 2 2 2 2 3 4 4 4 3 3 3 4 4 6 8 8 9 8 11 11 10 12 9 6 6 5 5 4 5 5 5 4 4 4 5 5 6 6 7 7 7
5 5 5 7 6 6 3 4 3 4 3 2 0 2 2 2 3 3 3 3 3 4 4 4 6 9 9 9 10 10 9 9 8 7 7 7 7 6 5 6 5 4 3 4 4 4 4 5 5 6 6 7 7 7
5 7 7 6 7 4 2 4 3 2 2 1 2 3 2 2 1 2 3 3 5 5 4 5 4 6 6 7 6 7 6 7 8 7 5 5 6 5 5 5 4 5 5 4 4 4 4 5 6 6 7 7 7 8
7 8 5 6 4 4 5 4 4 2 3 3 2 3 2 1 2 3 3 3 6 6 6 5 5 5 5 5 5 5 7 4 5 7 5 5 5 4 4 4 4 5 4 4 5 6 6 6 6 7 8 7 9 10
8 8 5 4 3 4 3 3 3 4 2 2 3 2 0 1 3 4 3 4 4 5 7 6 4 5 6 5 4 4 5 4 4 6 5 5 5 4 4 3 2 3 6 5 6 7 8 8 8 9 8 9 9 9
6 5 3 2 2 1 2 2 1 1 2 3 2 1 0 2 3 3 3 4 3 4 5 6 6 6 6 5 5 5 5 6 7 7 6 6 6 5 5 4 5 5 5 6 6 7 8 8 8 8 9 8 8 9
4 4 4 4 2 3 2 2 2 3 3 3 1 2 2 3 3 3 4 4 4 5 6 7 8 7 7 6 5 5 5 5 6 6 5 5 4 4 4 3 2 4 4 4 6 6 7 7 8 8 9 9 8 7
3 3 0 3 2 3 4 3 3 3 3 3 2 2 3 3 3 3 4 4 3 3 4 5 5 5 5 5 6 5 4 4 3 3 3 2 2 2 4 4 4 4 4 6 6 7 8 8 7 7 7 6 6 5
4 4 2 3 2 3 3 3 3 2 4 4 4 4 3 3 4 4 4 5 5 5 4 4 3 3 3 2 3 4 5 5 5 4 4 3 4 5 4 4 5 5 5 6 6 7 6 5 5 4 4 4 4 5
3 2 0 1 1 2 3 4 2 3 3 3 4 4 4 4 3 5 6 4 4 3 3 4 4 4 3 4 3 2 2 3 4 4 3 4 4 5 4 5 5 4 5 6 6 6 6 6 5 5 5 6 6 5
4 4 3 2 1 3 4 3 3 2 2 3 3 3 3 3 3 3 4 3 3 4 4 3 3 4 3 2 1 1 1 3 3 4 6 5 5 5 5 5 4 4 5 6 6 5 6 6 5 6 6 7 7 7
1 2 2 3 2 2 3 3 3 2 3 3 3 3 3 3 4 3 3 4 4 4 4 3 2 1 2 3 4 2 2 3 6 7 6 5 6 6 6 5 4 5 6 6 6 5 6 7 6 6 6 6 6 7
Wind_Direction
153 163 180 181 168 155 155 162 166 170 174 170 176 180 180 180 192 104 84 8 14 83 105 353 133 151 139 178 149 137 138 189 128 132 161 157 150 180 197 123 183 179 164 179 139 206 270 155 145 236 16 334 326 292
130 123 125 131 139 147 154 154 154 153 157 168 172 171 174 175 176 188 100 56 50 67 76 72 74 48 23 21 121 174 28 148 159 112 126 107 136 135 103 190 193 221 231 224 220 234 102 197 288 337 319 301 308 301
112 118 124 125 119 114 120 128 135 158 174 174 169 169 167 172 161 66 112 129 90 101 112 161 81 33 33 8 326 145 195 138 151 17 132 110 134 165 163 217 163 214 171 233 247 162 247 255 274 285 288 284 293 284
104 99 95 96 99 107 115 129 149 167 173 169 161 158 158 145 132 109 113 121 79 80 113 96 356 42 346 336 330 360 118 96 107 113 107 133 122 234 181 75 240 18 168 198 248 285 300 254 323 335 318 315 300 299
89 92 94 96 102 103 103 104 115 121 133 144 144 144 137 121 125 107 92 83 85 304 130 116 136 27 22 63 86 110 125 121 133 104 97 107 106 143 67 253 204 275 20 246 281 1 317 315 343 339 321 329 334 318
84 86 88 86 88 88 85 84 77 85 105 118 124 121 122 134 161 177 87 62 74 267 115 122 76 26 30 64 66 59 52 63 68 83 96 89 62 216 146 178 74 25 4 339 304 322 313 332 30 7 15 21 48 65
85 83 78 77 76 74 76 73 76 83 86 100 108 108 117 132 69 64 85 39 0 254 103 101 106 48 351 30 45 32 32 62 44 94 69 107 104 209 167 175 19 347 339 3 2 334 133 34 28 44 65 75 74 73
74 76 81 75 66 68 70 73 73 75 84 89 95 99 102 102 126 46 26 25 307 108 70 112 85 137 5 53 78 354 51 58 33 95 106 100 105 28 141 29 355 357 338 75 20 41 70 77 74 70 73 81 80 77
78 76 72 63 67 72 66 69 79 75 90 107 119 140 116 44 82 105 328 303 39 34 102 80 129 143 13 66 46 68 4 71 35 90 91 172 138 103 43 349 1 357 351 344 68 71 72 80 85 92 93 86 87 88
81 72 68 61 53 72 59 50 54 35 60 84 41 39 51 24 336 287 33 29 27 24 32 80 358 105 333 128 76 91 30 99 147 77 135 73 89 90 54 20 340 356 6 159 115 89 98 96 95 92 102 122 136 159
70 70 63 52 23 53 47 44 36 24 60 42 68 78 254 319 211 33 66 47 351 64 35 75 63 118 16 125 115 1 102 65 159 128 214 140 135 147 157 109 88 74 79 85 99 112 119 125 133 136 131 85 30 354
60 62 58 51 38 43 66 41 30 51 32 57 95 108 100 31 58 77 40 27 33 94 76 82 77 76 97 126 106 127 101 154 156 118 169 168 123 131 129 104 96 94 93 95 98 101 95 80 60 51 31 10 6 359
58 56 52 48 40 39 67 81 71 89 193 150 47 51 15 325 51 104 161 103 113 131 123 147 92 66 127 78 80 115 136 116 129 180 183 60 130 136 131 127 118 108 101 105 100 87 69 63 49 35 34 33 352 24
54 55 51 41 39 40 47 57 59 29 43 54 42 47 31 84 46 37 28 69 79 70 79 83 77 59 31 69 57 120 80 155 200 206 162 147 146 151 149 141 141 117 86 84 80 75 65 56 63 64 46 36 35 30
58 53 48 22 20 36 37 41 47 53 55 70 41 78 65 75 66 67 54 88 37 70 79 97 72 64 48 105 41 128 168 202 258 95 128 145 152 149 143 134 115 104 103 95 83 75 59 50 65 69 52 34 24 16
55 29 15 358 23 26 2 26 39 55 57 55 53 95 92 96 67 53 40 67 16 26 27 43 95 117 98 111 169 173 196 160 140 124 116 130 148 134 146 119 96 97 101 95 82 77 69 55 47 40 37 27 8 19
56 48 341 343 8 44 33 64 50 48 58 50 52 17 30 61 57 53 51 44 317 36 74 101 118 68 127 136 135 204 77 107 120 114 122 138 147 137 141 136 124 111 102 93 80 67 63 57 48 37 19 12 356 357
49 344 351 357 32 67 51 37 80 74 65 35 68 23 38 25 77 59 49 3 338 77 76 76 131 142 137 141 148 127 112 92 101 110 101 122 132 129 150 126 118 105 96 94 98 92 64 42 36 25 9 360 341 349
45 16 13 13 34 79 61 40 19 84 61 56 67 32 46 66 45 51 60 50 52 43 115 108 86 84 90 65 101 121 124 124 118 94 80 82 97 110 110 105 105 104 95 81 69 59 59 48 32 13 3 350 343 341
12 18 4 7 4 74 69 40 20 71 72 59 46 46 54 48 353 338 29 28 13 23 52 39 41 32 28 45 34 111 137 131 133 120 109 105 99 100 97 100 96 99 96 96 75 38 35 35 26 5 3 347 339 338
23 354 349 9 50 57 74 19 62 52 86 64 28 39 50 19 32 25 22 344 52 34 70 44 82 78 70 63 57 81 93 117 118 143 146 140 113 105 98 89 85 74 69 55 40 42 24 14 359 352 346 343 341 325
354 341 25 19 67 60 71 21 47 95 69 80 66 49 49 48 42 30 309 37 53 38 23 32 100 100 74 57 56 61 82 89 89 87 90 114 121 112 92 70 76 74 63 42 24 17 1 4 356 342 338 340 327 330
348 19 44 22 71 47 40 340 54 19 67 71 106 81 63 59 40 309 58 48 70 27 23 54 68 86 95 84 78 67 67 90 91 90 92 93 93 92 89 74 58 58 56 45 9 3 356 342 350 336 336 331 334 336
17 45 36 41 33 67 3 41 26 44 86 62 87 108 88 62 25 63 85 64 36 8 59 92 98 100 88 74 71 67 67 85 92 83 78 99 99 87 84 88 79 61 32 9 2 353 350 343 335 336 339 333 341 334
62 14 19 38 26 44 45 33 12 54 65 24 59 89 80 353 72 62 56 63 28 23 22 38 56 67 93 94 85 71 36 56 92 97 67 73 104 117 99 83 77 57 19 359 2 346 340 333 329 332 330 332 337 335
69 22 40 32 34 33 18 60 39 32 25 51 62 68 278 94 79 64 56 15 31 21 13 14 60 81 64 51 76 60 39 16 82 94 77 58 56 67 70 52 28 77 22 3 342 330 323 324 322 324 324 331 332 324
62 40 32 32 9 99 113 90 102 12 45 39 62 82 146 86 90 82 88 23 26 30 26 23 40 69 83 76 66 49 45 44 55 81 93 79 69 55 45 32 21 12 344 348 327 318 315 315 318 322 321 320 326 332
60 32 32 357 40 17 58 50 44 39 35 14 278 59 51 33 88 64 41 48 57 65 65 58 52 57 61 56 56 78 77 80 89 98 106 98 80 74 52 33 23 343 321 333 323 313 317 315 311 310 315 322 323 328
55 5 349 38 34 50 39 33 50 44 359 325 359 82 88 58 33 15 28 20 26 64 77 78 71 74 77 72 60 49 33 18 19 36 25 12 4 95 12 350 337 340 334 327 323 324 324 311 320 320 319 316 321 314
28 352 48 49 37 59 59 6 16 66 41 55 90 109 99 77 36 9 32 44 54 58 49 45 34 34 57 51 81 76 54 38 30 16 352 352 351 345 322 324 326 331 328 325 325 325 331 329 318 305 313 320 330 332
333 305 12 50 75 65 10 332 298 117 94 75 43 67 90 116 109 45 40 28 36 42 65 69 72 43 55 53 40 39 71 69 28 358 331 307 301 301 312 325 317 317 314 313 316 316 327 317 320 318 323 330 333 325
16 26 344 323 95 52 16 21 12 40 70 86 80 97 134 136 97 81 17 344 56 58 45 19 46 63 48 44 18 6 348 327 337 340 323 309 301 311 311 311 306 295 303 307 307 307 311 314 310 318 318 321 329 329
324 15 21 345 324 13 39 350 41 78 59 70 64 45 46 40 83 78 90 25 30 34 31 24 22 15 8 328 310 308 275 315 320 311 314 296 289 302 304 299 299 299 301 300 302 301 302 308 307 316 315 318 320 325